This is the latest recevied weather packets stored in our database for station/object K1TTC. If no packets are shown the sender has not sent any weather packets the latest 10 day(s).
| Time | Temp. | Humidity | Pressure | Rain* | Wind** | Luminosity | Snow |
|---|---|---|---|---|---|---|---|
| 1788286003 | 18.89° C | 83% | 1019.4 hPa | 0.51 mm | - | 163 W/m² | - |
| 1788285268 | 18.33° C | 83% | 1019.3 hPa | 0.51 mm | - | 155 W/m² | - |
| 1788284669 | 18.33° C | 83% | 1019.2 hPa | 0.51 mm | - | 204 W/m² | - |
| 1788284070 | 18.33° C | 83% | 1019.4 hPa | 0.25 mm | - | 156 W/m² | - |
| 1788283468 | 18.33° C | 83% | 1019.3 hPa | 0.25 mm | - | 97 W/m² | - |
| 1788282869 | 18.33° C | 82% | 1019.5 hPa | 0.25 mm | - | 86 W/m² | - |
| 1788282268 | 18.33° C | 82% | 1019.5 hPa | 0 mm | - | 67 W/m² | - |
| 1788281669 | 18.33° C | 81% | 1019.6 hPa | 0 mm | - | 54 W/m² | - |
| 1788281075 | 18.33° C | 81% | 1019.5 hPa | 0 mm | - | 79 W/m² | - |
| 1788280477 | 18.33° C | 81% | 1019.7 hPa | 0 mm | - | 54 W/m² | - |
| 1788279872 | 18.33° C | 81% | 1019.8 hPa | 0 mm | - | 49 W/m² | - |
| 1788279271 | 18.33° C | 81% | 1019.6 hPa | 0 mm | - | 83 W/m² | - |
| 1788278671 | 18.33° C | 81% | 1019.5 hPa | 0 mm | - | 105 W/m² | - |
| 1788278201 | 18.33° C | 81% | 1019.3 hPa | 0 mm | - | 123 W/m² | - |
| 1788277473 | 18.33° C | 81% | 1019.3 hPa | 0 mm | - | 120 W/m² | - |
| 1788276872 | 18.33° C | 80% | 1019.3 hPa | 0 mm | - | 107 W/m² | - |
| 1788276398 | 18.33° C | 80% | 1019.6 hPa | 0 mm | - | 105 W/m² | - |
| 1788275672 | 18.33° C | 79% | 1019.8 hPa | 0 mm | - | 70 W/m² | - |
| 1788275072 | 18.33° C | 79% | 1019.7 hPa | 0 mm | - | 88 W/m² | - |
| 1788274472 | 17.78° C | 79% | 1019.2 hPa | 0 mm | - | 127 W/m² | - |
| 1788273871 | 17.78° C | 79% | 1019.4 hPa | 0 mm | - | 107 W/m² | - |
| 1788273267 | 17.78° C | 78% | 1019.3 hPa | 0 mm | - | 121 W/m² | - |
| 1788272666 | 17.78° C | 78% | 1019.3 hPa | 0.51 mm | - | 146 W/m² | - |
| 1788272061 | 17.78° C | 78% | 1019.2 hPa | 1.27 mm | - | 134 W/m² | - |
| 1788271451 | 17.78° C | 77% | 1019.3 hPa | 2.03 mm | - | 132 W/m² | - |
* Rain latest hour (hover to see other rain measurements)
** Current wind speed in m/s (hover to see current wind gust speed)